When you browse on this site, cookies collect data to enhance your experience and personalize the content and advertising you see.
Visit our Privacy Policy to learn more. By continuing to use the site, you agree to this use of cookies and data.
EN

Hourly Weather Quibdó

Today, 11 July, Saturday

Time Temperature Precipitation Wind Pressure Humidity
00:00 +22°C° 0.5 mm 0 mps 752 mmHg 98%
01:00 +22°C° 0.5 mm 0 mps 752 mmHg 98%
02:00 +22°C° 0.9 mm 0 mps 751 mmHg 98%
03:00 +22°C° 0.9 mm 0 mps 751 mmHg 98%
04:00 +22°C° 0.9 mm 0 mps 750 mmHg 98%
05:00 +22°C° 1 mm 0 mps 751 mmHg 98%
06:00 +22°C° 1 mm 0 mps 751 mmHg 98%
07:00 +22°C° 1 mm 0 mps 751 mmHg 98%
08:00 +23°C° 0.2 mm 0 mps 751 mmHg 94%
09:00 +24°C° 0.2 mm 0 mps 751 mmHg 89%
10:00 +27°C° 0.2 mm 1 mps 751 mmHg 85%
11:00 +28°C° 0.7 mm 1 mps 751 mmHg 81%
12:00 +30°C° 0.7 mm 1 mps 750 mmHg 77%
13:00 +31°C° 0.7 mm 1 mps 750 mmHg 73%
14:00 +30°C° 2.8 mm 1 mps 749 mmHg 79%
15:00 +29°C° 2.8 mm 1 mps 749 mmHg 84%
16:00 +28°C° 2.8 mm 1 mps 748 mmHg 89%
17:00 +27°C° 2.6 mm 1 mps 749 mmHg 91%
18:00 +26°C° 2.6 mm 1 mps 749 mmHg 94%
19:00 +25°C° 2.6 mm 1 mps 750 mmHg 96%
20:00 +25°C° 2 mm 1 mps 751 mmHg 96%
21:00 +25°C° 2 mm 1 mps 751 mmHg 96%
22:00 +25°C° 2 mm 1 mps 752 mmHg 97%
23:00 +23°C° 1 mm 0 mps 751 mmHg 97%

Tomorrow, 12 July, Sunday

Time Temperature Precipitation Wind Pressure Humidity
00:00 +23°C° 1 mm 0 mps 751 mmHg 97%
01:00 +23°C° 1 mm 0 mps 751 mmHg 97%
02:00 +23°C° 0.6 mm 0 mps 751 mmHg 97%
03:00 +23°C° 0.6 mm 0 mps 751 mmHg 98%
04:00 +22°C° 0.6 mm 0 mps 750 mmHg 98%
05:00 +22°C° 0.8 mm 0 mps 751 mmHg 98%
06:00 +22°C° 0.8 mm 0 mps 751 mmHg 98%
07:00 +22°C° 0.8 mm 0 mps 751 mmHg 98%
08:00 +23°C° 0.8 mm 0 mps 752 mmHg 97%
09:00 +23°C° 0.8 mm 0 mps 752 mmHg 96%
10:00 +24°C° 0.8 mm 0 mps 752 mmHg 95%
11:00 +25°C° 0.2 mm 0 mps 751 mmHg 89%
12:00 +28°C° 0.2 mm 1 mps 751 mmHg 84%
13:00 +29°C° 0.2 mm 1 mps 750 mmHg 78%
14:00 +29°C° 1.8 mm 1 mps 750 mmHg 82%
15:00 +28°C° 1.8 mm 1 mps 749 mmHg 86%
16:00 +28°C° 1.8 mm 1 mps 749 mmHg 90%
17:00 +25°C° 1.6 mm 0 mps 749 mmHg 92%
18:00 +24°C° 1.6 mm 0 mps 750 mmHg 94%
19:00 +23°C° 1.6 mm 0 mps 750 mmHg 96%
20:00 +23°C° 0.4 mm 0 mps 751 mmHg 96%
21:00 +23°C° 0.4 mm 0 mps 751 mmHg 96%
22:00 +23°C° 0.4 mm 0 mps 752 mmHg 96%
23:00 +23°C° 0.4 mm 0 mps 752 mmHg 97%

Day after tomorrow, 13 July, Monday

Time Temperature Precipitation Wind Pressure Humidity
00:00 +23°C° 0.4 mm 0 mps 751 mmHg 97%
01:00 +22°C° 0.4 mm 0 mps 751 mmHg 97%
02:00 +22°C° 1.7 mm 0 mps 751 mmHg 98%
03:00 +22°C° 1.7 mm 0 mps 751 mmHg 98%
04:00 +22°C° 1.7 mm 0 mps 751 mmHg 98%
05:00 +22°C° 0.3 mm 0 mps 751 mmHg 98%
06:00 +22°C° 0.3 mm 0 mps 751 mmHg 98%
07:00 +22°C° 0.3 mm 0 mps 751 mmHg 98%
08:00 +24°C° 0 mm 0 mps 752 mmHg 92%
09:00 +25°C° 0 mm 0 mps 752 mmHg 86%
10:00 +29°C° 0 mm 1 mps 752 mmHg 81%
11:00 +30°C° 0.3 mm 1 mps 751 mmHg 78%
12:00 +30°C° 0.3 mm 1 mps 751 mmHg 75%
13:00 +29°C° 0.3 mm 0 mps 750 mmHg 72%
14:00 +29°C° 1.1 mm 0 mps 749 mmHg 74%
15:00 +28°C° 1.1 mm 0 mps 749 mmHg 77%
16:00 +28°C° 1.1 mm 0 mps 748 mmHg 79%
17:00 +27°C° 0.6 mm 0 mps 749 mmHg 85%
18:00 +25°C° 0.6 mm 0 mps 749 mmHg 90%
19:00 +24°C° 0.6 mm 0 mps 750 mmHg 95%
20:00 +24°C° 0.1 mm 0 mps 750 mmHg 96%
21:00 +24°C° 0.1 mm 0 mps 751 mmHg 97%
22:00 +23°C° 0.1 mm 0 mps 751 mmHg 97%
23:00 +23°C° 0.8 mm 0 mps 751 mmHg 98%

14 July, Tuesday

Time Temperature Precipitation Wind Pressure Humidity
00:00 +23°C° 0.8 mm 0 mps 751 mmHg 98%
01:00 +25°C° 0.8 mm 1 mps 751 mmHg 98%
02:00 +23°C° 0.8 mm 0 mps 751 mmHg 98%
03:00 +23°C° 0.8 mm 0 mps 750 mmHg 98%
04:00 +23°C° 0.8 mm 0 mps 750 mmHg 98%
05:00 +23°C° 0.4 mm 0 mps 750 mmHg 98%
06:00 +23°C° 0.4 mm 0 mps 751 mmHg 97%
07:00 +23°C° 0.4 mm 0 mps 751 mmHg 97%
08:00 +24°C° 0 mm 0 mps 751 mmHg 93%
09:00 +25°C° 0 mm 0 mps 751 mmHg 88%
10:00 +27°C° 0 mm 0 mps 751 mmHg 83%
11:00 +28°C° 0 mm 0 mps 750 mmHg 75%
12:00 +32°C° 0 mm 1 mps 750 mmHg 66%
13:00 +34°C° 0 mm 1 mps 749 mmHg 57%
14:00 +33°C° 0.1 mm 1 mps 749 mmHg 60%
15:00 +32°C° 0.1 mm 1 mps 748 mmHg 64%
16:00 +32°C° 0.1 mm 1 mps 748 mmHg 68%
17:00 +30°C° 0.6 mm 1 mps 748 mmHg 77%
18:00 +28°C° 0.6 mm 1 mps 749 mmHg 86%
19:00 +26°C° 0.6 mm 1 mps 749 mmHg 95%
20:00 +26°C° 0.2 mm 1 mps 750 mmHg 95%
21:00 +26°C° 0.2 mm 1 mps 750 mmHg 96%
22:00 +24°C° 0.2 mm 0 mps 751 mmHg 96%
23:00 +24°C° 1.2 mm 0 mps 751 mmHg 97%

15 July, Wednesday

Time Temperature Precipitation Wind Pressure Humidity
00:00 +24°C° 1.2 mm 0 mps 751 mmHg 97%
01:00 +23°C° 1.2 mm 0 mps 750 mmHg 98%
02:00 +23°C° 3.1 mm 0 mps 750 mmHg 98%
03:00 +23°C° 3.1 mm 0 mps 750 mmHg 98%
04:00 +23°C° 3.1 mm 0 mps 750 mmHg 98%
05:00 +23°C° 0.3 mm 0 mps 750 mmHg 97%
06:00 +23°C° 0.3 mm 0 mps 750 mmHg 96%
07:00 +23°C° 0.3 mm 0 mps 751 mmHg 95%
08:00 +25°C° 0 mm 0 mps 751 mmHg 87%
09:00 +27°C° 0 mm 0 mps 751 mmHg 79%
10:00 +29°C° 0 mm 0 mps 751 mmHg 71%
11:00 +30°C° 0.1 mm 0 mps 750 mmHg 67%
12:00 +31°C° 0.1 mm 0 mps 749 mmHg 62%
13:00 +34°C° 0.1 mm 1 mps 749 mmHg 57%
14:00 +33°C° 1.1 mm 1 mps 748 mmHg 65%
15:00 +32°C° 1.1 mm 1 mps 747 mmHg 72%
16:00 +31°C° 1.1 mm 2 mps 747 mmHg 80%
17:00 +29°C° 2.3 mm 1 mps 747 mmHg 85%
18:00 +28°C° 2.3 mm 1 mps 748 mmHg 90%
19:00 +26°C° 2.3 mm 1 mps 749 mmHg 95%
20:00 +26°C° 0.8 mm 1 mps 749 mmHg 95%
21:00 +24°C° 0.8 mm 0 mps 750 mmHg 96%
22:00 +24°C° 0.8 mm 0 mps 750 mmHg 96%
23:00 +24°C° 0.2 mm 0 mps 750 mmHg 96%

16 July, Thursday

Time Temperature Precipitation Wind Pressure Humidity
00:00 +24°C° 0.2 mm 0 mps 750 mmHg 96%
01:00 +24°C° 0.2 mm 0 mps 750 mmHg 97%
02:00 +24°C° 0.7 mm 0 mps 750 mmHg 97%
03:00 +23°C° 0.7 mm 0 mps 750 mmHg 97%
04:00 +23°C° 0.7 mm 0 mps 749 mmHg 97%
05:00 +23°C° 1.1 mm 0 mps 750 mmHg 97%
06:00 +23°C° 1.1 mm 0 mps 750 mmHg 97%
07:00 +23°C° 1.1 mm 0 mps 750 mmHg 97%
08:00 +25°C° 0.1 mm 0 mps 750 mmHg 91%
09:00 +27°C° 0.1 mm 0 mps 751 mmHg 85%
10:00 +28°C° 0.1 mm 0 mps 751 mmHg 78%
11:00 +29°C° 0.8 mm 0 mps 750 mmHg 75%
12:00 +32°C° 0.8 mm 1 mps 750 mmHg 71%
13:00 +33°C° 0.8 mm 1 mps 749 mmHg 67%
14:00 +31°C° 3.4 mm 1 mps 749 mmHg 75%
15:00 +30°C° 3.4 mm 1 mps 748 mmHg 82%
16:00 +29°C° 3.4 mm 1 mps 748 mmHg 90%
17:00 +28°C° 1.8 mm 1 mps 748 mmHg 92%
18:00 +27°C° 1.8 mm 1 mps 749 mmHg 93%
19:00 +24°C° 1.8 mm 0 mps 749 mmHg 95%
20:00 +24°C° 0.5 mm 0 mps 750 mmHg 95%
21:00 +24°C° 0.5 mm 0 mps 750 mmHg 96%
22:00 +23°C° 0.5 mm 0 mps 751 mmHg 96%
23:00 +23°C° 0 mm 0 mps 751 mmHg 96%
Show more